Latest Coastal Weather Observations for Bougainville Reef

IDQ60701

Issued at 1:51 pm EST Monday 20 November 2017 (issued every 10 minutes, with the page automatically refreshed every 10 minutes)

About coastal observations | Map of coastal stations | Coastal observations for QLD | Marine services | Other Formats
Station Details ID: 200840 Name: BOUGAINVILLE REEF Lat: -15.49 Lon: 147.12 Height: 0.0 m
Data from the previous 72 hours. | See also: Recent months for locations in Queensland
Date/Time
EST
Temp
°C
Wind Pressure Rain since
9am
mm
Weather Cloud Vis
km
Sea
Height
m
Swell
Dir  Spd
kts
Gust
kts
hPa Trend Height
m
Period
s
Dir
20/01:30pm 26.4 ESE 10 11 1010.8 - - - - - - - - -
20/01:00pm 26.4 ESE 10 11 1011.2 - - - - - - - - -
20/12:30pm 26.4 ESE 10 12 1011.7 - - - - - - - - -
20/12:00pm 26.4 ESE 10 11 1011.8 - - - - - - - - -
20/11:30am 26.6 SE 11 13 1012.2 - - - - - - - - -
20/11:00am 26.5 SE 12 13 1012.5 - - - - - - - - -
20/10:30am 26.5 ESE 11 15 1012.8 - - - - - - - - -
20/10:00am 26.4 ESE 11 14 1012.7 - - - - - - - - -
20/09:30am 26.5 ESE 12 14 1013.0 - - - - - - - - -
20/09:00am 26.5 ESE 13 15 1012.8 - - - - - - - - -
20/08:30am 26.3 ESE 13 16 1012.7 - - - - - - - - -
20/08:00am 26.3 SE 14 18 1012.4 - - - - - - - - -
20/07:30am 26.2 SE 15 17 1012.1 - - - - - - - - -
20/07:00am 26.1 ESE 16 19 1011.6 - - - - - - - - -
20/06:30am 26.0 ESE 16 19 1011.3 - - - - - - - - -
20/06:00am 26.0 ESE 15 18 1010.9 - - - - - - - - -
20/05:30am 26.0 ESE 15 16 1010.9 - - - - - - - - -
20/05:00am 25.9 ESE 15 16 1010.3 - - - - - - - - -
20/04:30am 25.9 ESE 14 16 1010.3 - - - - - - - - -
20/04:00am 26.1 ESE 14 17 1010.0 - - - - - - - - -
20/03:30am 26.1 ESE 14 17 1010.1 - - - - - - - - -
20/03:00am 26.0 ESE 12 15 1009.8 - - - - - - - - -
20/02:30am 26.1 SE 12 15 1009.9 - - - - - - - - -
20/02:00am 26.1 ESE 13 14 1010.0 - - - - - - - - -
20/01:30am 26.0 E 14 17 1010.3 - - - - - - - - -
20/01:00am 26.1 E 14 16 1010.5 - - - - - - - - -
20/12:30am 26.3 E 15 17 1010.8 - - - - - - - - -
20/12:00am 26.4 ESE 16 18 1010.9 - - - - - - - - -
 
Date/Time
EST
Temp
°C
Wind Pressure Rain since
9am
mm
Weather Cloud Vis
km
Sea
Height
m
Swell
Dir  Spd
kts
Gust
kts
hPa Trend Height
m
Period
s
Dir
19/11:30pm 26.2 E 16 19 1011.2 - - - - - - - - -
19/11:00pm 26.3 ESE 14 16 1011.6 - - - - - - - - -
19/10:30pm 26.3 ESE 14 17 1011.8 - - - - - - - - -
19/10:00pm 26.3 ESE 15 18 1011.5 - - - - - - - - -
19/09:30pm 26.3 ESE 16 19 1011.5 - - - - - - - - -
19/09:00pm 26.4 ESE 15 18 1011.1 - - - - - - - - -
19/08:30pm 26.4 ESE 15 17 1010.9 - - - - - - - - -
19/08:00pm 26.3 ESE 16 18 1010.5 - - - - - - - - -
19/07:30pm 26.4 ESE 15 17 1010.4 - - - - - - - - -
19/07:00pm 26.4 SE 16 17 1009.8 - - - - - - - - -
19/06:30pm 26.4 SE 15 16 1009.8 - - - - - - - - -
19/06:00pm 26.5 SE 15 16 1009.4 - - - - - - - - -
19/05:30pm 26.5 SE 15 17 1009.3 - - - - - - - - -
19/05:00pm 26.5 SE 14 15 1008.9 - - - - - - - - -
19/04:30pm 26.5 SE 12 14 1008.9 - - - - - - - - -
19/04:00pm 26.6 SE 13 16 1008.9 - - - - - - - - -
19/03:30pm 26.6 SE 13 16 1009.1 - - - - - - - - -
19/03:00pm 26.6 SE 12 17 1009.4 - - - - - - - - -
19/02:30pm 26.5 SE 11 14 1009.9 - - - - - - - - -
19/02:00pm 26.7 SSE 12 15 1010.1 - - - - - - - - -
19/01:30pm 26.4 SE 12 14 1010.4 - - - - - - - - -
19/01:00pm 26.6 SSE 13 16 1010.5 - - - - - - - - -
19/12:30pm 26.4 SE 13 15 1010.7 - - - - - - - - -
19/12:00pm 26.4 SE 13 15 1011.1 - - - - - - - - -
19/11:30am 26.3 SE 12 14 1011.2 - - - - - - - - -
19/11:00am 26.4 SE 12 15 1011.7 - - - - - - - - -
19/10:30am 26.5 SE 12 14 1011.7 - - - - - - - - -
19/10:00am 26.5 ESE 11 14 1011.8 - - - - - - - - -
19/09:30am 26.5 SE 10 13 1012.1 - - - - - - - - -
19/09:00am 26.4 ESE 11 12 1011.9 - - - - - - - - -
19/08:30am 26.4 ESE 11 14 1012.0 - - - - - - - - -
19/08:00am 26.4 ESE 13 14 1011.4 - - - - - - - - -
19/07:30am 26.1 SE 13 15 1011.5 - - - - - - - - -
19/07:00am 26.0 SE 14 16 1010.9 - - - - - - - - -
19/06:30am 26.2 ESE 14 16 1010.7 - - - - - - - - -
19/06:00am 25.9 ESE 15 17 1009.9 - - - - - - - - -
19/05:30am 26.0 ESE 15 18 1009.8 - - - - - - - - -
19/05:00am 25.9 ESE 16 17 1009.3 - - - - - - - - -
19/04:30am 25.9 ESE 15 18 1009.2 - - - - - - - - -
19/04:00am 25.8 ESE 17 19 1009.0 - - - - - - - - -
19/03:30am 25.9 ESE 17 19 1008.7 - - - - - - - - -
19/03:00am 25.8 ESE 17 20 1008.5 - - - - - - - - -
19/02:30am 26.0 SE 17 19 1008.6 - - - - - - - - -
19/02:00am 26.1 ESE 16 19 1008.5 - - - - - - - - -
19/01:30am 26.0 ESE 16 18 1008.7 - - - - - - - - -
19/01:00am 26.2 ESE 16 19 1009.2 - - - - - - - - -
19/12:30am 26.1 ESE 16 19 1009.6 - - - - - - - - -
19/12:00am 26.0 ESE 16 18 1009.9 - - - - - - - - -
 
Date/Time
EST
Temp
°C
Wind Pressure Rain since
9am
mm
Weather Cloud Vis
km
Sea
Height
m
Swell
Dir  Spd
kts
Gust
kts
hPa Trend Height
m
Period
s
Dir
18/11:30pm 26.2 ESE 16 19 1010.2 - - - - - - - - -
18/11:00pm 26.1 ESE 17 19 1010.3 - - - - - - - - -
18/10:30pm 26.2 ESE 16 19 1010.5 - - - - - - - - -
18/10:00pm 26.3 ESE 17 20 1010.4 - - - - - - - - -
18/09:30pm 26.4 ESE 17 19 1010.3 - - - - - - - - -
18/09:00pm 26.2 SE 16 19 1009.8 - - - - - - - - -
18/08:30pm 26.2 SE 16 19 1009.8 - - - - - - - - -
18/08:00pm 26.3 SE 18 20 1009.5 - - - - - - - - -
18/07:30pm 26.4 SE 17 19 1009.3 - - - - - - - - -
18/07:00pm 26.5 SSE 18 21 1009.3 - - - - - - - - -
18/06:30pm 26.4 SE 17 20 1009.3 - - - - - - - - -
18/06:00pm 26.4 SE 17 19 1009.3 - - - - - - - - -
18/05:30pm 26.3 SE 16 18 1009.2 - - - - - - - - -
18/05:00pm 26.4 SE 15 18 1009.0 - - - - - - - - -
18/04:30pm 26.4 SE 15 18 1008.8 - - - - - - - - -
18/04:00pm 26.4 SE 15 17 1009.0 - - - - - - - - -
18/03:30pm 26.7 SE 16 18 1009.0 - - - - - - - - -
18/03:00pm 26.5 SE 15 17 1009.3 - - - - - - - - -
18/02:30pm 26.6 SE 16 18 1009.6 - - - - - - - - -
18/02:00pm 26.5 ESE 15 18 1010.0 - - - - - - - - -
18/01:30pm 26.6 ESE 13 16 1010.3 - - - - - - - - -
18/01:00pm 26.5 SE 12 13 1010.6 - - - - - - - - -
18/12:30pm 26.4 SE 13 15 1010.8 - - - - - - - - -
18/12:00pm 26.4 SE 14 16 1011.1 - - - - - - - - -
18/11:30am 26.3 SE 14 17 1011.3 - - - - - - - - -
18/11:00am 26.3 SE 14 17 1011.4 - - - - - - - - -
18/10:30am 26.3 SE 14 17 1011.6 - - - - - - - - -
18/10:00am 26.3 SE 14 17 1011.8 - - - - - - - - -
18/09:30am 26.4 SE 15 17 1011.8 - - - - - - - - -
18/09:00am 26.3 SE 16 17 1011.5 - - - - - - - - -
18/08:30am 26.5 SE 16 19 1011.4 - - - - - - - - -
18/08:00am 26.4 SE 17 19 1010.8 - - - - - - - - -
18/07:30am 26.2 SE 16 19 1010.7 - - - - - - - - -
18/07:00am 26.1 SE 15 20 1010.4 - - - - - - - - -
18/06:30am 26.2 SE 17 21 1010.1 - - - - - - - - -
18/06:00am 26.1 SE 16 19 1009.4 - - - - - - - - -
18/05:30am 26.0 SE 17 20 1009.1 - - - - - - - - -
18/05:00am 26.2 SE 17 20 1009.1 - - - - - - - - -
18/04:30am 26.1 SE 17 19 1009.0 - - - - - - - - -
18/04:00am 25.9 SE 17 19 1008.9 - - - - - - - - -
18/03:30am 26.0 SE 17 20 1009.1 - - - - - - - - -
18/03:00am 25.9 SE 17 19 1009.1 - - - - - - - - -
18/02:30am 26.0 SE 17 20 1009.2 - - - - - - - - -
18/02:00am 25.9 SE 16 20 1009.5 - - - - - - - - -
18/01:30am 25.8 SE 16 20 1009.7 - - - - - - - - -
18/01:00am 25.8 ESE 16 19 1010.1 - - - - - - - - -
18/12:30am 26.0 SE 17 19 1010.5 - - - - - - - - -
18/12:00am 26.0 SE 18 20 1011.1 - - - - - - - - -
 
Date/Time
EST
Temp
°C
Wind Pressure Rain since
9am
mm
Weather Cloud Vis
km
Sea
Height
m
Swell
Dir  Spd
kts
Gust
kts
hPa Trend Height
m
Period
s
Dir
17/11:30pm 26.2 SE 18 22 1011.4 - - - - - - - - -
17/11:00pm 26.1 SE 19 22 1011.5 - - - - - - - - -
17/10:30pm 26.1 SE 20 23 1011.6 - - - - - - - - -
17/10:00pm 26.2 SE 21 25 1011.4 - - - - - - - - -
17/09:30pm 26.2 SE 22 25 1011.4 - - - - - - - - -
17/09:00pm 26.2 SE 22 26 1011.0 - - - - - - - - -
17/08:30pm 26.3 SE 22 25 1010.9 - - - - - - - - -
17/08:00pm 26.3 SE 24 26 1010.4 - - - - - - - - -
17/07:30pm 26.3 SE 23 26 1010.2 - - - - - - - - -
17/07:00pm 26.4 SSE 24 27 1009.4 - - - - - - - - -
17/06:30pm 26.4 SE 21 24 1009.3 - - - - - - - - -
17/06:00pm 26.4 SE 22 25 1009.2 - - - - - - - - -
17/05:30pm 26.5 SE 19 22 1009.2 - - - - - - - - -
17/05:00pm 26.7 SE 18 21 1009.3 - - - - - - - - -
17/04:30pm 26.5 SE 19 21 1009.2 - - - - - - - - -
17/04:00pm 26.6 SE 18 20 1009.5 - - - - - - - - -
17/03:30pm 26.6 SE 18 21 1009.5 - - - - - - - - -
17/03:00pm 26.6 SE 19 21 1009.5 - - - - - - - - -
17/02:30pm 26.7 SE 19 21 1009.8 - - - - - - - - -
17/02:00pm 26.5 SE 18 20 1009.9 - - - - - - - - -

Other Formats:

Comma delimited format used in spreadsheet applications
http://www.bom.gov.au/fwo/IDQ60701/IDQ60701.95288.axf

JavaScript Object Notation format (JSON) in row-major order
http://www.bom.gov.au/fwo/IDQ60701/IDQ60701.95288.json